Wind_Speed
87 88 90 92 92 91 90 87 84 80 78 76 75 73 71 69 68 66 65 63 61 61 61 59 55 54 54 56 59 59 59 57 55 53 52 53 54 52 51 49 47 49 51 50 49 46 42 36 33 33 33 33 32 30 26 23 23 24 24 22 21 21 21 19 18 18 17 17 21 22 22 23 22 19 18 17 14 11 10 9 9 9 8 8 8
89 90 91 92 92 92 91 89 85 82 80 78 76 75 73 71 69 67 65 63 61 60 60 60 58 57 55 54 57 58 57 56 56 55 54 54 55 53 50 49 49 50 49 47 44 41 38 34 31 31 32 31 30 27 24 23 22 23 22 19 19 20 20 18 17 17 16 19 21 21 22 23 21 19 18 16 13 10 9 8 8 8 8 8 7
90 91 91 92 92 93 93 90 87 84 82 81 79 77 75 73 70 68 65 63 61 61 60 61 61 60 57 56 56 56 55 54 53 53 51 51 51 48 46 46 45 43 41 40 39 37 35 32 30 29 30 28 26 24 23 22 20 20 20 18 18 19 18 17 16 15 16 19 20 20 21 22 21 19 18 16 13 10 9 8 7 8 9 8 6
90 91 92 92 92 93 93 91 88 86 84 82 80 78 76 74 72 70 66 63 62 63 62 62 63 62 60 58 57 56 54 52 49 45 43 43 42 40 39 39 37 36 36 36 36 35 33 31 30 28 27 24 24 24 22 21 19 19 18 17 18 19 17 16 15 15 17 19 19 19 20 22 21 19 17 15 13 10 8 7 6 8 9 9 7
89 91 92 93 93 93 93 92 91 88 86 83 81 79 78 76 74 72 68 65 65 65 64 63 61 58 55 52 50 50 49 45 40 38 39 39 37 37 37 34 32 33 34 33 32 33 32 31 29 28 26 23 24 24 23 21 19 18 17 17 18 18 16 15 14 15 17 18 18 18 19 21 21 19 17 15 13 10 8 6 6 8 9 8 7
89 91 93 93 93 93 93 93 92 88 87 85 83 81 80 79 77 75 72 69 67 67 65 60 55 53 50 46 44 45 44 40 38 40 42 40 39 38 37 33 32 33 32 31 30 31 31 31 29 27 26 25 25 26 25 21 19 18 16 17 18 18 15 14 14 15 17 18 18 18 19 21 22 21 18 14 12 11 8 5 5 8 8 7 7
90 91 93 94 94 94 93 93 91 88 88 87 85 84 82 81 79 77 76 74 70 69 65 55 51 55 53 47 46 45 43 42 43 44 43 40 38 36 35 34 34 33 31 31 30 31 32 31 29 27 27 27 27 27 26 22 19 18 16 16 18 17 15 14 15 16 17 18 18 18 19 21 22 22 19 15 11 10 9 6 6 7 8 7 7
91 92 93 94 94 94 93 92 91 90 90 90 88 85 83 82 80 78 78 77 74 71 64 55 54 61 60 54 51 45 42 43 45 44 41 38 36 36 35 34 34 33 32 32 31 32 33 32 30 28 28 28 28 28 25 21 19 18 16 16 17 15 14 15 16 16 17 18 18 18 20 21 22 23 20 16 11 8 8 7 7 7 8 8 9
91 92 93 93 94 94 94 93 93 92 91 90 88 86 85 83 81 80 79 77 74 70 64 60 60 63 62 59 55 48 43 44 45 45 41 37 36 36 34 33 34 34 33 32 31 31 32 31 29 28 28 28 27 26 23 20 20 18 16 16 16 14 14 15 16 17 18 18 18 18 20 21 22 22 20 17 13 9 8 8 7 7 8 9 11
91 92 93 93 94 95 95 94 93 92 91 91 90 88 86 84 82 80 79 78 75 70 66 63 64 64 63 63 59 52 47 46 46 45 41 38 36 34 33 34 35 34 31 30 30 30 30 28 27 28 28 27 25 23 21 20 21 19 17 17 15 15 15 15 16 17 18 19 18 18 19 20 21 21 19 17 15 11 10 9 8 7 8 9 12
89 91 92 93 94 95 95 95 94 93 92 92 91 89 86 83 81 80 79 78 75 73 70 68 67 66 66 65 61 55 51 48 47 45 42 40 37 34 35 36 36 32 28 27 27 28 26 25 26 28 26 24 23 21 20 21 21 19 18 17 16 16 16 15 16 17 18 19 18 17 18 20 20 19 17 17 16 13 10 10 9 8 9 10 14
86 89 91 93 95 96 96 95 95 94 93 92 91 88 85 82 81 80 79 78 76 75 73 72 70 68 65 63 59 55 53 51 48 45 43 42 40 37 37 37 33 29 26 26 26 24 23 23 26 25 22 21 21 20 21 22 21 20 19 18 16 15 15 15 15 17 19 19 18 17 18 19 19 17 15 16 17 15 12 10 9 9 9 11 14
83 87 90 93 96 97 96 95 95 94 93 92 90 88 85 82 81 80 79 78 77 77 76 74 70 67 64 60 57 55 53 52 50 47 46 44 41 39 39 35 30 26 26 25 23 21 21 22 23 21 19 18 18 17 20 21 21 20 19 17 15 14 14 15 16 18 19 19 18 16 17 18 17 16 14 14 16 16 14 11 9 9 10 11 14
80 85 89 93 96 97 96 96 96 94 92 92 91 88 85 82 81 81 79 78 78 78 77 74 70 68 65 61 58 56 53 52 51 49 47 45 43 40 39 34 28 25 25 23 19 19 22 23 21 19 18 17 16 16 19 20 20 20 19 17 15 14 14 15 16 19 19 19 17 16 16 17 16 15 14 13 15 16 15 13 11 10 10 12 13
75 80 87 93 96 97 96 96 96 95 93 92 91 88 85 82 81 82 81 79 79 79 78 74 71 69 65 61 59 56 53 52 51 50 48 46 44 41 37 32 27 26 24 21 19 22 24 23 19 18 17 16 16 17 19 20 20 20 18 17 15 15 15 16 17 19 19 19 17 15 16 17 15 14 14 13 14 14 14 14 13 12 12 13 14
69 76 83 90 94 95 96 96 96 95 94 92 91 88 84 82 82 82 81 80 80 79 77 74 72 70 66 62 60 56 53 50 49 49 48 47 46 42 36 31 28 27 24 22 23 25 25 21 18 16 16 17 18 18 20 20 20 20 18 17 16 16 16 17 18 20 19 18 16 14 15 16 15 14 14 13 13 13 13 13 14 14 14 14 15
66 73 80 88 92 93 94 95 95 95 93 91 90 87 84 82 82 83 82 81 81 79 76 74 73 72 67 63 60 57 54 50 48 48 48 49 47 42 36 31 29 28 26 25 27 27 23 20 17 15 16 17 19 20 21 20 20 19 18 17 17 17 17 18 19 19 18 17 14 12 14 16 15 14 14 14 14 13 13 13 13 14 14 15 16
64 71 78 86 90 91 92 93 93 93 92 91 90 88 86 84 83 83 83 82 81 79 77 74 73 70 67 62 58 55 52 50 51 50 50 51 49 43 36 32 31 30 28 28 30 27 23 20 17 15 15 18 20 21 21 20 20 20 19 18 18 18 18 19 19 19 18 15 11 9 11 13 14 13 13 14 14 14 14 13 13 13 14 16 17
60 67 75 83 88 91 91 91 91 91 90 90 90 90 88 84 83 84 83 83 82 80 78 75 72 70 66 59 53 51 52 52 55 54 52 53 51 45 37 33 33 32 30 30 30 27 24 21 17 15 16 19 22 22 21 20 21 20 19 19 19 19 19 19 19 18 17 14 9 7 8 10 9 10 11 12 13 14 15 14 14 14 15 17 18
57 63 71 80 86 90 91 91 90 89 89 89 90 90 88 84 82 83 84 84 82 81 78 75 73 70 63 55 49 48 51 55 59 58 55 55 53 46 38 35 35 33 32 32 31 27 24 21 18 16 17 19 22 23 21 21 21 20 20 20 20 20 20 18 17 17 16 14 11 9 8 8 6 7 9 11 14 16 16 16 15 16 17 18 19
56 61 68 76 84 89 91 91 90 88 87 88 89 90 88 84 81 82 84 84 82 80 77 75 74 68 60 53 50 49 52 58 63 62 58 57 53 47 41 37 37 36 35 34 31 27 23 20 19 18 18 21 23 23 22 21 21 21 22 21 20 20 19 17 17 16 17 16 14 11 10 8 6 6 8 11 15 18 18 18 17 18 19 21 22
53 59 65 73 81 87 90 91 90 88 86 86 88 90 89 85 81 82 85 84 83 81 77 76 74 67 60 57 54 52 56 65 69 64 60 58 53 48 44 40 40 40 39 35 30 25 21 19 19 20 21 23 23 23 22 21 21 22 23 22 21 20 18 17 17 16 17 17 15 13 12 10 7 7 8 11 15 19 20 20 21 22 23 25 25
49 56 62 70 78 84 88 89 89 88 86 85 87 89 89 87 85 86 87 85 84 83 80 79 75 69 65 60 56 57 64 72 74 67 62 60 54 50 46 42 43 44 42 37 31 26 23 21 21 23 24 24 23 22 21 22 23 23 23 23 20 20 19 17 17 17 17 17 14 12 13 12 10 10 11 12 16 20 21 22 24 26 27 28 29
46 53 60 67 75 81 85 87 87 86 85 84 86 89 89 87 86 88 88 87 87 85 83 81 78 74 68 60 58 66 74 78 76 68 64 62 56 51 48 45 45 46 44 40 35 30 26 24 24 25 25 24 22 21 20 21 22 23 24 22 20 19 19 18 17 17 17 15 12 12 13 13 14 14 15 15 17 20 22 24 25 27 29 31 32
44 50 57 64 71 78 83 85 86 85 84 84 86 88 89 87 86 87 89 89 89 87 84 82 81 78 74 68 65 72 80 81 74 67 65 63 57 53 50 47 47 47 46 42 36 30 28 27 27 27 24 21 20 20 20 20 22 24 24 21 20 19 18 17 18 17 15 13 12 13 14 15 18 18 19 19 21 22 24 26 27 27 28 31 33
43 48 55 61 68 75 81 85 86 86 84 84 85 88 89 88 86 88 90 91 90 88 85 83 84 83 80 77 72 73 80 79 71 67 65 62 58 55 52 49 48 48 46 41 35 29 28 28 28 26 23 19 19 19 18 19 22 23 22 20 19 18 17 17 18 17 15 13 14 15 16 18 21 22 21 22 23 24 25 27 28 27 27 31 35
42 47 53 60 66 72 78 83 86 87 86 85 85 87 89 89 87 89 92 93 92 91 87 85 87 85 81 81 77 74 77 75 68 66 65 61 58 57 54 51 47 45 44 39 33 29 29 29 29 26 23 21 19 18 18 19 21 21 20 19 19 18 17 17 17 16 15 14 15 16 18 20 23 24 23 23 24 26 27 28 29 29 28 31 36
41 46 52 58 64 70 75 81 85 87 88 86 86 87 89 89 89 89 92 93 93 93 90 88 89 85 79 84 86 79 76 72 68 66 64 61 60 59 56 50 43 41 40 36 33 30 30 31 30 27 25 23 20 19 18 18 19 18 18 18 19 19 17 16 15 14 14 14 15 17 19 21 25 26 24 24 25 26 28 29 30 30 29 32 37
40 44 50 56 62 68 73 78 82 85 88 88 87 88 90 90 89 90 92 94 93 93 92 91 92 88 81 85 90 85 79 74 69 66 63 61 60 60 56 47 40 38 36 34 32 32 33 34 31 29 27 25 22 22 21 18 16 16 16 18 19 19 16 15 16 16 17 17 17 19 21 23 24 25 24 24 26 27 28 29 30 30 30 33 37
39 42 48 54 60 65 71 76 80 83 86 88 88 89 90 90 90 90 92 94 93 93 94 93 94 93 88 85 87 87 82 76 70 65 62 61 61 60 54 46 40 37 34 33 32 33 36 35 33 31 29 26 25 26 25 22 17 16 16 17 19 19 18 18 19 20 21 20 20 22 23 23 23 24 24 25 26 27 28 28 30 31 31 33 38
38 40 45 52 57 62 68 73 77 80 84 88 89 89 91 91 90 91 92 94 93 92 94 95 95 95 92 87 87 86 82 75 69 64 62 61 61 59 53 45 40 37 34 33 33 34 37 37 35 33 29 27 28 29 29 26 21 18 17 18 20 21 22 23 23 24 23 22 22 23 24 24 24 24 26 27 27 27 28 29 31 33 32 33 39
36 39 43 49 55 60 65 70 74 78 82 86 89 89 91 91 90 91 93 94 94 93 94 96 96 95 93 89 87 85 79 73 69 66 63 62 62 60 53 45 40 37 36 35 34 35 37 38 37 34 29 28 28 29 30 28 25 22 20 20 22 24 25 26 24 23 22 23 24 24 24 25 25 27 28 29 28 28 29 31 33 34 33 34 39
34 37 41 47 53 59 63 67 72 76 80 85 89 90 90 91 90 91 93 94 95 95 95 96 97 97 95 91 88 83 78 74 71 68 65 63 63 59 51 45 42 41 38 35 34 34 36 37 36 32 29 28 28 28 28 27 26 23 22 22 23 26 27 27 24 22 23 24 25 25 27 28 28 29 29 29 29 29 31 33 34 35 34 35 40
32 34 39 44 51 57 62 65 70 76 79 84 88 90 91 91 91 92 94 96 97 97 97 97 98 98 96 92 89 85 80 77 74 70 66 65 64 58 51 47 46 43 38 35 34 34 34 35 34 31 29 29 28 27 27 26 25 24 23 23 23 26 28 28 27 25 25 25 26 27 29 30 30 29 29 29 30 31 33 35 36 36 36 36 40
29 31 35 41 48 54 60 64 69 74 79 83 87 90 92 92 91 92 95 97 99 99 99 99 100 100 97 94 91 87 82 79 76 70 67 66 63 56 51 49 48 44 40 36 34 34 34 34 33 31 30 30 29 28 27 26 24 24 23 24 24 27 28 29 28 27 28 28 28 29 29 29 29 29 29 30 31 33 35 37 38 38 37 37 40
25 27 30 37 45 52 57 63 67 72 77 83 86 90 92 92 91 92 95 99 101 101 100 101 101 101 98 95 94 90 84 79 75 71 69 67 63 56 51 49 48 46 42 37 34 34 34 33 32 32 31 30 29 28 27 26 25 24 24 25 26 29 30 29 29 29 29 29 29 28 28 28 30 31 31 31 33 35 37 38 40 40 39 39 41
20 23 26 32 41 49 55 61 66 70 76 82 86 89 92 93 92 92 95 98 100 101 101 102 102 102 100 98 96 92 85 79 73 70 69 67 63 58 52 49 48 46 41 36 34 33 32 30 30 31 31 30 29 28 28 27 26 25 26 27 29 31 30 29 30 30 30 29 28 27 27 28 31 33 33 33 34 37 39 40 41 41 41 41 44
16 20 23 28 36 44 51 58 64 69 74 80 85 89 91 92 92 92 93 96 99 100 100 101 103 103 102 101 98 93 86 79 72 69 68 66 63 59 53 49 47 44 39 35 33 32 30 29 30 30 30 30 29 28 28 28 26 26 27 29 31 32 31 30 31 31 30 29 28 27 28 30 33 35 35 34 36 38 40 41 42 43 43 44 47
14 18 22 27 32 39 45 53 60 67 72 78 84 88 91 91 91 91 92 95 97 99 100 102 103 104 103 102 98 92 86 79 73 69 67 65 62 60 55 49 46 41 36 33 33 32 32 31 30 30 30 29 28 28 28 28 27 27 29 30 32 32 32 32 31 30 30 29 29 29 31 34 35 37 37 37 38 40 41 42 44 45 46 47 49
13 16 20 25 30 36 42 48 56 63 69 75 82 86 90 91 91 91 92 95 98 99 100 102 103 104 103 101 97 91 86 79 72 67 66 66 64 61 56 49 44 39 35 33 33 34 34 33 31 30 29 29 28 28 28 29 28 28 29 31 32 33 34 33 31 30 29 29 30 32 35 36 37 38 38 39 40 42 43 45 46 47 49 50 51
13 14 17 22 27 32 37 44 52 59 65 72 79 84 88 91 92 91 92 95 98 100 101 102 103 103 101 99 95 90 85 80 71 65 65 66 63 60 57 49 42 38 36 35 35 36 36 35 32 30 29 29 28 28 28 29 28 28 30 33 34 34 35 34 32 31 31 32 33 35 36 37 38 40 40 41 43 44 46 47 48 49 51 53 53
17 15 15 18 22 26 31 38 47 55 62 69 76 82 87 91 92 91 91 93 96 99 101 102 101 100 99 97 93 88 85 81 72 64 64 64 62 60 57 48 40 38 37 37 37 37 37 35 33 31 30 29 28 28 28 28 27 28 31 34 34 35 35 34 33 33 34 34 34 35 36 38 40 41 41 43 44 46 47 48 49 51 53 54 55
25 22 19 16 17 20 25 32 42 52 60 67 73 80 86 90 92 90 88 90 93 97 99 100 99 98 97 95 92 87 85 82 73 65 63 63 61 61 57 48 40 39 39 39 39 39 38 36 34 33 31 29 28 27 25 25 26 28 31 33 32 33 34 35 35 36 36 35 35 37 39 40 41 41 42 44 46 47 49 50 51 53 55 56 58
29 27 24 19 15 16 20 27 36 47 56 63 70 76 83 87 90 89 86 86 89 93 95 97 97 96 95 93 91 87 85 82 74 66 63 62 62 63 58 49 43 42 41 41 41 41 39 36 35 34 33 31 28 25 23 22 24 26 29 30 30 31 33 35 36 36 36 37 37 39 40 41 42 42 44 46 47 48 49 50 52 55 56 58 60
29 28 26 22 17 13 14 20 28 38 48 57 64 72 79 84 87 87 84 83 84 88 91 93 94 93 92 92 90 87 84 81 74 68 64 63 63 64 62 54 48 46 45 44 43 41 39 37 36 37 37 35 32 28 25 23 23 25 27 28 29 30 32 35 36 37 37 38 39 40 42 43 44 46 47 48 48 49 50 51 53 56 57 59 62
28 26 24 21 17 13 11 12 18 28 39 49 58 66 74 80 83 84 82 79 79 82 85 88 90 90 89 89 88 85 83 80 74 68 67 65 63 64 64 58 51 48 48 46 44 42 41 40 39 40 41 40 37 34 29 26 26 27 28 29 31 32 34 36 38 39 40 40 41 43 45 47 48 49 50 49 49 49 50 52 55 57 58 60 62
26 23 21 19 15 12 10 9 12 18 29 42 53 61 68 75 79 80 79 76 74 77 80 82 85 86 86 87 85 82 81 79 73 68 68 67 63 63 63 60 54 50 49 47 44 42 42 43 43 44 45 43 41 37 35 32 31 31 32 33 34 36 37 39 40 41 42 44 46 48 50 50 50 51 51 50 49 50 52 54 56 57 59 60 63
27 22 19 18 16 14 12 11 11 14 21 32 45 55 62 68 73 76 76 73 71 72 74 76 79 81 82 82 81 78 78 77 72 68 69 69 66 64 64 62 56 50 48 47 44 42 43 45 45 45 45 43 41 38 37 37 36 36 36 37 39 40 41 42 43 44 45 47 50 51 52 52 52 51 51 51 51 52 55 57 57 58 59 61 65
30 25 20 18 18 18 18 17 17 17 19 24 35 47 57 63 67 70 71 70 67 67 68 70 72 75 76 77 76 75 76 75 71 69 71 71 69 68 68 65 58 49 47 48 46 44 45 46 46 45 44 43 41 39 39 39 40 40 40 41 42 42 43 44 45 46 48 50 51 52 52 52 52 52 53 53 54 55 57 57 58 58 60 63 66
32 29 24 20 18 19 21 23 24 25 25 26 31 40 51 60 64 65 66 65 62 61 63 64 65 66 69 71 71 72 73 72 70 71 73 73 73 73 73 70 63 54 50 51 50 48 48 48 46 43 43 42 42 42 41 42 42 42 43 44 43 43 44 45 46 48 50 52 52 52 52 53 54 55 56 56 57 58 58 58 58 60 62 65 67
34 31 28 24 20 18 18 22 26 29 31 33 34 38 45 53 59 61 61 59 57 57 59 60 60 61 63 66 67 69 71 71 71 72 75 76 76 76 75 72 66 59 55 55 55 53 52 51 47 44 43 44 45 44 43 44 44 44 45 45 45 45 46 47 48 50 52 52 52 52 53 54 55 57 58 59 59 59 59 59 60 62 65 68 70
Wind_Direction
219 219 219 220 220 221 222 222 220 220 220 219 218 217 214 212 212 214 216 216 214 216 218 217 215 217 220 222 222 222 222 223 224 225 227 230 233 237 241 244 249 253 258 262 265 265 265 268 273 276 279 282 284 286 286 278 275 280 283 287 292 292 290 293 297 297 301 315 322 323 326 330 332 332 335 340 347 345 338 344 353 359 6 360 352
218 218 218 218 219 220 221 221 220 219 219 218 217 216 214 212 211 212 214 215 213 214 217 216 214 215 218 221 223 223 223 225 226 228 230 233 236 239 243 247 250 253 256 260 262 262 264 268 272 274 277 279 280 283 281 274 273 279 283 287 289 287 287 291 295 296 306 319 323 325 328 331 332 333 337 343 350 346 333 338 346 348 356 359 353
217 216 216 217 218 219 220 220 219 218 218 217 216 215 213 211 210 210 212 215 213 212 214 214 214 214 215 218 222 222 222 224 226 229 232 235 239 241 244 245 247 249 251 254 258 261 266 270 272 273 274 275 277 278 275 271 272 276 280 284 285 283 285 290 292 296 310 320 323 325 328 330 333 334 337 342 351 347 332 332 334 338 350 1 3
216 216 215 216 216 217 219 219 218 218 217 217 215 214 213 211 209 208 209 213 214 212 212 213 213 214 215 217 220 221 223 224 225 227 230 232 235 237 237 238 240 243 247 251 256 261 267 271 272 271 271 270 274 275 270 267 270 273 278 283 281 281 285 288 288 298 313 319 321 324 327 330 335 338 337 339 347 348 338 330 325 334 349 357 1
215 215 214 214 215 216 217 218 217 217 217 217 215 214 213 211 209 207 206 210 214 213 212 212 213 217 218 220 221 222 223 223 223 225 227 228 229 231 232 234 237 240 245 250 255 261 267 270 271 269 268 267 271 271 266 263 265 269 275 280 279 281 285 283 286 300 312 317 319 322 326 331 338 343 341 336 339 347 347 336 323 332 344 348 350
215 214 214 213 214 215 216 217 217 216 216 216 215 213 212 211 208 205 204 207 211 212 213 211 213 219 221 221 222 222 223 222 222 226 227 226 227 229 232 234 237 240 243 249 255 261 267 269 269 269 267 266 268 267 261 258 261 266 272 275 277 282 281 279 286 301 311 315 318 321 324 329 339 346 345 337 333 342 350 342 322 323 333 338 339
214 213 213 212 213 214 214 216 216 215 215 216 215 213 212 210 208 204 203 205 207 209 212 207 208 219 222 220 218 217 219 221 222 223 222 221 224 228 232 234 237 240 244 250 256 261 265 268 268 269 268 266 265 260 254 253 258 263 268 270 275 280 278 277 288 301 310 314 316 319 321 327 338 346 346 341 333 337 343 339 334 331 334 336 331
213 212 212 212 212 213 213 214 215 214 214 214 215 214 212 211 208 204 203 204 204 205 206 200 202 215 220 220 219 215 218 220 218 217 216 217 222 226 229 233 237 241 246 251 255 259 262 265 267 267 268 265 257 248 246 251 255 258 262 266 272 276 274 278 290 301 310 315 315 317 319 324 337 344 345 344 341 335 333 335 339 339 338 337 331
212 211 211 211 211 211 212 213 213 213 213 213 214 213 212 211 208 205 203 204 203 203 202 196 198 210 217 219 219 218 217 216 213 214 214 214 220 225 229 232 237 242 246 251 254 256 259 262 264 265 264 257 245 239 243 251 254 255 257 261 266 270 273 279 290 301 310 315 315 315 317 324 336 343 344 348 350 339 329 330 336 336 335 334 329
211 209 209 210 210 211 211 212 212 212 212 213 213 213 212 210 208 205 203 203 202 201 199 197 197 205 213 216 216 216 215 213 211 213 213 213 218 224 229 232 236 240 245 248 251 253 256 260 261 261 257 247 238 239 245 251 252 251 253 256 261 265 270 277 288 299 308 314 313 312 316 323 334 343 346 354 359 349 332 326 329 333 334 332 328
211 209 208 208 209 210 210 211 212 211 211 212 212 213 212 210 208 205 203 202 201 200 199 198 198 202 209 212 212 212 213 211 211 213 213 213 216 220 226 230 233 236 239 243 246 250 253 257 257 254 248 240 238 242 247 250 249 247 249 254 258 263 267 274 285 297 305 311 311 309 314 322 333 342 348 359 6 2 344 331 328 330 332 333 330
211 208 207 206 207 209 209 209 211 211 210 211 212 212 211 210 208 206 203 201 200 200 199 199 200 203 206 209 209 210 211 210 211 213 213 214 215 218 224 228 230 232 234 237 241 245 250 252 249 243 236 234 237 242 247 247 244 242 246 252 257 262 266 272 283 294 301 306 307 306 312 320 330 340 347 358 6 8 359 342 331 329 332 333 325
210 208 206 206 207 208 208 208 210 210 209 210 211 212 211 209 207 206 203 201 200 200 200 199 200 202 203 204 206 209 209 209 210 212 212 213 215 218 223 226 227 227 228 232 235 240 245 242 235 230 228 231 237 242 244 241 237 239 243 250 257 262 266 272 283 293 299 302 303 304 310 317 327 336 343 353 3 6 5 356 338 327 322 316 308
209 207 205 205 206 207 207 207 209 209 208 208 210 211 210 208 206 206 203 201 201 201 201 200 200 201 202 203 205 208 210 210 210 211 211 212 214 217 221 223 224 223 223 226 229 235 235 227 222 227 229 230 234 238 237 234 235 238 242 248 256 262 266 271 283 294 297 298 299 302 309 315 323 331 336 347 357 2 5 4 353 337 323 314 311
209 206 204 204 206 207 207 207 208 209 207 207 208 210 209 207 205 205 202 200 201 202 202 201 200 201 203 204 206 209 212 213 212 212 212 212 215 217 219 221 222 219 218 219 222 226 224 218 221 229 229 227 230 232 233 233 235 237 240 248 256 261 265 269 282 294 297 295 295 299 307 311 317 324 330 339 350 357 2 5 1 353 342 333 331
208 206 204 204 206 207 207 207 207 208 207 206 207 208 209 207 205 204 202 200 201 202 202 201 202 203 204 205 207 210 213 214 215 216 215 214 216 219 218 219 218 213 212 213 214 215 214 215 221 227 225 224 226 229 232 233 233 233 239 248 255 259 263 269 282 293 295 290 291 297 305 309 314 321 326 333 343 352 1 4 2 357 352 345 339
206 205 203 204 206 207 207 207 207 207 206 205 205 207 208 206 204 203 201 199 200 201 201 201 202 203 204 205 207 212 215 216 218 219 219 219 220 220 218 217 214 209 208 207 206 207 208 210 217 222 222 222 226 231 232 231 229 231 239 247 253 257 261 269 283 291 290 284 285 294 303 310 317 322 325 331 338 348 358 3 0 355 349 344 338
204 203 202 203 204 206 208 208 207 207 206 204 204 206 207 206 204 202 201 199 199 201 200 201 201 202 203 205 207 213 218 222 224 223 222 223 223 222 218 216 212 206 204 204 204 204 204 205 210 215 216 219 226 231 231 228 228 231 239 245 249 255 261 271 282 287 282 277 278 292 310 322 331 336 337 338 340 346 353 357 357 351 343 339 335
203 203 202 202 203 205 207 208 208 207 206 203 202 204 206 206 203 201 200 198 198 200 200 200 200 200 201 203 208 213 216 221 225 225 224 224 224 224 219 215 212 205 202 202 202 201 200 202 207 211 214 220 225 229 229 227 227 230 237 242 249 257 264 272 280 280 273 268 268 287 315 331 346 358 357 355 355 354 353 353 352 346 341 337 334
201 202 201 201 202 204 206 207 208 208 206 203 202 203 204 205 203 200 199 198 198 199 198 199 198 198 199 201 206 210 210 216 222 222 223 225 225 224 220 215 212 205 199 199 199 198 199 203 207 211 217 224 227 229 229 227 227 230 235 242 252 260 264 270 274 270 265 263 265 276 296 309 330 355 2 6 6 3 359 357 352 347 343 340 336
199 199 201 201 202 203 205 206 207 207 207 203 201 202 203 203 201 199 198 197 197 197 197 197 196 196 196 197 199 203 210 218 221 219 221 224 224 223 220 215 211 205 200 199 198 199 201 208 213 215 221 228 231 231 229 229 231 232 236 244 256 261 263 266 266 261 262 265 268 274 280 282 297 328 346 357 0 360 360 0 358 353 348 345 340
200 198 199 201 202 203 204 206 206 207 206 204 200 201 202 201 199 198 198 197 196 196 195 196 195 193 192 191 192 201 214 220 219 217 219 222 223 222 219 215 210 205 202 202 204 206 209 218 222 222 227 233 235 235 233 234 235 236 240 247 257 260 260 262 260 259 263 265 266 270 269 266 275 305 325 342 351 353 355 357 359 355 351 347 344
203 199 198 199 201 203 204 205 206 206 206 204 200 200 202 201 198 197 197 196 196 195 194 194 193 190 190 190 192 203 214 218 216 215 217 219 220 220 218 214 209 206 206 209 212 215 220 227 226 225 231 236 238 239 238 237 238 240 244 249 255 257 259 260 259 259 260 259 260 266 264 263 271 290 309 327 342 347 349 351 354 353 350 347 344
203 202 200 199 200 202 204 205 206 205 205 204 200 199 201 201 198 197 196 195 196 194 193 193 190 188 189 192 198 208 213 213 211 212 215 216 217 218 217 212 208 208 209 213 218 222 226 229 225 224 230 236 238 241 242 241 241 243 246 249 252 253 257 260 257 254 253 251 254 259 263 270 280 289 300 312 326 337 341 344 347 349 349 347 345
201 202 201 200 200 201 203 204 205 205 205 204 200 199 201 201 199 197 196 195 195 194 193 192 189 188 191 195 203 210 210 208 208 211 214 214 215 217 216 211 208 210 212 217 222 226 229 228 221 221 226 231 235 240 244 244 243 244 247 248 249 250 253 254 249 246 246 247 251 258 265 275 282 287 294 302 313 323 330 336 340 343 347 347 345
200 201 201 200 200 200 201 202 204 204 205 204 201 199 200 201 199 197 196 196 194 193 192 191 189 192 197 202 206 209 207 206 208 210 212 213 215 217 214 209 208 211 215 220 224 225 227 226 220 218 220 222 229 238 243 245 244 244 248 249 248 247 246 244 242 242 247 253 261 269 274 274 274 280 287 296 306 313 319 327 332 336 342 345 345
201 201 201 201 200 200 201 201 202 202 203 203 201 199 199 200 199 197 197 196 194 193 192 191 191 193 201 208 209 207 206 207 208 209 211 213 214 215 211 207 208 212 216 221 223 222 225 225 220 217 215 216 224 234 242 245 246 248 251 252 248 244 241 241 242 246 256 268 279 287 284 276 272 276 284 294 304 310 313 320 326 329 334 340 343
203 201 201 201 201 200 200 201 200 201 201 201 200 199 199 200 199 197 197 197 195 193 192 192 192 193 201 209 210 208 207 207 207 208 211 212 213 212 207 205 208 212 215 219 220 220 223 223 219 216 214 215 222 233 243 248 251 255 256 252 247 242 240 241 247 255 265 273 280 285 281 274 272 274 283 296 305 308 311 316 321 324 329 335 339
204 202 201 202 202 200 200 200 200 200 200 199 199 198 198 199 199 198 198 198 196 194 193 194 193 194 200 206 208 208 209 207 207 209 211 211 211 208 203 203 207 207 209 215 218 218 220 221 219 216 217 219 224 233 244 252 259 263 260 251 244 242 241 244 251 256 258 258 260 265 266 267 270 275 284 297 305 307 310 313 317 321 326 332 336
204 203 201 202 203 201 200 200 200 199 199 198 198 197 197 199 199 197 197 198 197 196 195 195 195 197 201 204 205 207 209 208 208 209 209 209 208 204 201 203 204 202 206 214 217 218 220 221 221 220 222 226 228 233 243 252 262 270 267 252 241 239 241 243 247 250 250 251 255 258 261 265 272 280 288 298 304 305 307 310 314 318 323 329 334
203 203 201 202 202 203 201 199 199 199 198 198 197 196 197 198 198 197 197 198 198 197 196 197 197 199 202 204 206 208 209 208 208 207 206 207 205 202 202 203 202 201 208 215 217 219 221 222 222 222 226 230 229 233 240 248 258 271 273 257 239 235 237 241 246 249 250 254 257 258 261 267 276 284 291 297 300 301 304 308 312 316 318 323 329
205 202 201 201 202 203 202 200 198 198 198 197 197 196 196 198 198 197 196 197 198 198 197 198 199 200 202 204 207 208 207 206 205 204 204 204 203 201 202 203 201 203 210 216 219 221 223 224 222 222 227 232 232 234 239 247 255 266 274 264 243 233 237 243 248 251 253 256 259 260 264 270 279 285 290 293 296 298 302 306 310 312 313 318 326
208 203 199 200 201 202 202 201 198 197 197 197 196 195 196 198 198 197 196 196 198 198 198 198 199 201 202 204 206 207 205 204 203 202 203 203 201 201 202 201 202 206 213 218 221 223 223 224 222 222 227 234 236 237 241 247 254 262 272 268 247 235 238 244 249 252 255 258 261 263 267 273 278 282 286 291 294 297 301 304 306 309 310 314 322
211 205 200 199 200 201 201 200 198 196 196 196 196 195 196 198 198 196 195 196 197 198 198 198 200 202 203 204 206 205 204 204 203 202 202 202 200 200 201 203 206 211 217 221 223 222 222 223 222 222 228 235 239 242 244 248 253 260 270 267 250 238 240 246 250 253 255 259 263 267 270 275 278 281 286 291 294 297 300 302 303 305 307 313 320
214 209 202 198 199 200 200 200 199 196 195 195 196 195 196 198 198 196 195 196 197 198 198 198 200 202 203 204 206 205 204 203 203 201 202 201 200 200 202 205 211 216 221 223 222 220 221 222 221 223 229 237 242 246 248 249 253 259 266 265 253 243 243 247 250 253 256 260 265 270 273 277 279 282 287 291 294 297 299 299 300 301 305 312 317
216 213 206 199 198 199 199 199 199 197 195 194 195 195 196 198 199 197 196 197 198 198 199 199 200 202 203 204 206 206 205 204 203 201 202 201 199 201 204 208 213 219 222 222 219 219 222 222 223 226 232 238 243 246 248 250 254 258 263 263 255 247 247 249 251 254 257 261 266 271 274 277 279 282 286 291 294 296 297 297 298 300 303 308 311
213 213 209 202 199 198 198 198 198 197 195 194 195 196 196 197 199 198 197 197 199 199 199 199 201 202 203 204 206 206 206 205 203 202 202 201 200 203 205 209 215 219 219 218 217 219 222 223 226 230 234 238 242 245 248 250 254 257 260 260 255 250 250 252 254 255 258 261 266 270 273 276 279 282 286 291 294 295 295 295 297 299 300 302 306
206 206 203 199 199 199 199 198 197 196 195 195 194 195 196 198 199 199 198 198 200 201 201 201 202 203 204 206 207 207 206 205 204 203 202 202 202 203 204 208 214 217 216 215 217 220 223 226 230 233 236 239 241 244 246 249 252 256 258 258 255 251 251 253 255 256 258 261 265 267 270 274 279 283 286 290 293 292 292 294 296 298 299 300 303
192 197 195 190 193 198 199 198 197 196 195 195 195 195 197 198 199 200 198 199 200 202 202 203 204 205 207 208 208 208 207 205 204 203 203 203 204 203 202 207 213 215 214 215 217 221 225 229 232 235 238 239 240 243 245 248 251 255 258 258 255 249 249 254 257 257 258 260 263 265 267 271 277 281 285 289 291 290 291 292 294 298 299 298 301
168 182 186 184 187 193 197 197 197 196 195 195 196 196 196 198 200 200 199 199 201 202 203 205 206 207 208 210 210 209 208 207 206 204 203 204 204 202 202 206 212 213 213 215 218 223 228 231 235 237 238 239 240 243 246 249 252 255 258 259 254 248 248 254 258 259 258 259 262 264 266 270 276 280 284 287 287 287 289 292 293 296 297 297 300
141 160 172 178 183 189 194 195 196 197 196 196 196 196 197 198 200 201 200 199 201 202 204 206 207 209 210 211 210 209 209 209 208 205 204 205 204 201 202 206 210 212 213 215 219 224 228 231 235 237 237 237 240 245 248 251 253 256 258 259 254 248 248 253 257 256 256 257 260 263 267 272 276 279 282 284 285 286 290 292 292 294 295 297 299
119 131 147 163 172 180 189 193 194 196 196 197 197 197 197 199 201 202 201 200 201 203 205 207 208 210 211 212 211 209 209 210 209 206 206 207 206 203 203 205 209 212 213 216 222 226 228 231 234 235 235 237 242 246 249 253 255 256 257 257 253 249 249 252 252 253 255 257 261 265 270 274 277 279 282 284 285 287 290 292 292 293 294 296 298
109 109 114 129 149 166 180 188 192 195 197 198 198 198 199 200 202 203 203 201 201 203 205 207 209 210 212 213 212 210 210 210 209 207 207 208 208 207 205 204 209 214 215 218 223 226 228 231 234 235 235 238 241 245 249 253 255 256 256 255 252 250 248 248 249 251 255 259 263 268 272 275 277 280 282 283 285 288 290 292 292 292 293 295 298
100 97 97 101 118 147 170 183 191 196 198 199 199 200 200 201 203 205 204 203 202 203 205 208 209 210 211 212 212 211 211 211 209 207 207 208 209 209 208 207 213 217 218 220 223 226 229 232 236 238 239 238 239 241 245 248 252 255 256 255 253 252 250 248 248 251 256 261 265 269 273 276 277 279 281 284 286 288 290 291 291 291 293 295 298
90 90 90 91 99 120 153 175 188 196 200 201 201 201 202 203 205 207 206 204 203 204 205 208 210 210 211 212 213 212 212 212 210 208 208 209 210 210 210 212 217 220 220 222 224 226 229 233 238 243 244 240 237 238 241 245 248 253 256 257 256 255 251 249 249 253 257 261 265 270 274 276 278 280 283 286 287 288 290 291 291 292 294 296 299
82 85 85 87 91 103 128 160 182 194 201 203 204 204 204 204 206 208 208 207 205 204 206 207 210 211 212 212 214 213 213 213 211 208 210 211 211 211 212 213 218 221 222 224 226 227 231 236 240 245 246 243 238 236 238 244 249 252 255 257 257 255 253 251 253 256 259 263 268 272 276 279 280 282 284 286 286 287 289 290 291 293 295 298 300
75 81 87 91 95 104 121 146 174 191 200 205 206 207 207 206 207 209 211 209 206 205 206 207 209 212 213 213 214 214 213 213 211 209 211 213 212 212 212 213 218 222 223 225 228 231 235 239 242 244 245 244 241 238 238 243 249 253 255 256 256 257 257 257 258 261 264 268 273 276 279 281 282 283 284 284 284 286 289 292 294 295 297 299 299
71 77 89 101 109 117 129 145 166 187 200 206 208 209 209 209 208 209 212 212 209 206 206 207 208 211 213 214 215 213 213 213 210 209 212 214 213 211 212 214 218 222 226 229 233 235 239 242 243 244 245 245 244 242 241 244 248 252 254 255 256 258 260 261 263 266 269 273 276 279 281 282 282 283 284 284 284 287 291 295 297 298 298 299 298
72 75 83 99 116 127 136 144 156 171 186 200 208 210 210 211 210 210 212 213 212 209 207 208 208 209 212 214 214 213 213 212 210 208 212 215 214 212 213 214 217 222 230 235 237 238 240 244 245 245 246 247 246 245 245 245 248 252 254 256 257 259 261 263 265 268 272 275 277 279 280 281 282 282 283 284 285 289 293 296 297 298 298 297 297
74 75 78 88 105 124 136 144 150 158 167 179 193 203 208 209 210 210 211 213 213 211 209 209 209 209 210 213 213 212 212 212 210 208 211 215 216 215 216 217 219 225 233 237 239 239 240 243 245 247 247 247 247 247 247 249 251 254 256 257 259 260 261 263 266 268 272 274 276 278 279 279 280 281 282 284 287 290 294 296 297 296 296 296 297
75 76 78 82 89 105 125 140 148 154 160 166 175 187 197 203 207 208 209 210 211 211 209 209 209 208 209 210 212 212 212 212 211 209 211 215 218 220 221 221 224 229 234 236 240 241 241 242 247 250 249 248 247 247 250 252 254 256 257 259 261 262 262 264 267 269 272 274 276 277 278 278 279 280 282 284 287 291 294 295 294 293 293 294 296
Height
10560 10568 10574 10580 10587 10593 10599 10608 10618 10627 10635 10643 10651 10658 10666 10675 10682 10687 10691 10695 10701 10706 10711 10716 10722 10726 10731 10735 10739 10744 10749 10753 10758 10762 10764 10765 10767 10770 10772 10775 10777 10778 10777 10778 10779 10779 10781 10783 10784 10785 10786 10787 10787 10787 10788 10788 10787 10786 10785 10785 10784 10783 10783 10782 10782 10781 10780 10779 10778 10776 10774 10771 10769 10767 10765 10763 10761 10760 10760 10760 10760 10760 10759 10759 10759
10547 10555 10563 10571 10579 10585 10592 10600 10610 10620 10627 10634 10642 10649 10658 10668 10676 10683 10687 10692 10698 10703 10708 10713 10717 10721 10727 10731 10734 10739 10745 10750 10753 10756 10758 10761 10764 10768 10771 10773 10774 10775 10776 10776 10776 10776 10778 10780 10782 10784 10784 10785 10785 10786 10786 10785 10785 10784 10783 10783 10783 10782 10781 10781 10780 10779 10778 10778 10776 10774 10772 10770 10768 10765 10763 10761 10760 10759 10759 10759 10759 10758 10758 10758 10758
10534 10543 10553 10561 10570 10576 10583 10592 10603 10612 10618 10625 10632 10640 10650 10660 10669 10678 10685 10691 10695 10699 10703 10708 10711 10716 10722 10726 10730 10735 10741 10745 10749 10752 10755 10759 10762 10766 10769 10770 10771 10772 10773 10773 10773 10774 10775 10778 10780 10782 10783 10783 10784 10784 10784 10783 10783 10782 10781 10781 10781 10781 10780 10780 10779 10778 10777 10776 10775 10773 10771 10769 10766 10764 10761 10759 10758 10757 10757 10758 10757 10757 10757 10757 10757
10523 10533 10543 10552 10560 10567 10575 10585 10595 10603 10610 10618 10626 10635 10643 10652 10662 10671 10680 10688 10693 10696 10698 10701 10705 10711 10717 10721 10726 10731 10736 10742 10747 10750 10754 10757 10760 10763 10764 10766 10767 10769 10769 10770 10772 10772 10773 10775 10777 10779 10781 10782 10782 10782 10782 10781 10781 10780 10780 10780 10779 10779 10779 10779 10778 10777 10776 10775 10774 10772 10770 10767 10765 10763 10760 10757 10756 10756 10756 10756 10756 10756 10756 10756 10756
10515 10524 10534 10542 10551 10559 10568 10576 10585 10594 10604 10612 10620 10628 10636 10645 10654 10664 10675 10683 10689 10692 10693 10697 10704 10709 10715 10721 10726 10731 10736 10743 10747 10749 10751 10754 10756 10758 10758 10761 10763 10764 10766 10768 10770 10771 10771 10773 10774 10777 10778 10779 10780 10780 10779 10779 10778 10778 10778 10778 10778 10778 10778 10778 10777 10776 10775 10775 10773 10771 10769 10767 10764 10762 10759 10756 10754 10754 10755 10755 10755 10754 10755 10755 10755
10506 10515 10523 10533 10542 10550 10558 10566 10576 10588 10598 10605 10612 10619 10627 10635 10644 10656 10668 10677 10684 10688 10690 10698 10706 10709 10714 10720 10726 10731 10735 10740 10742 10743 10745 10748 10750 10752 10755 10758 10759 10761 10763 10765 10767 10768 10769 10770 10771 10774 10775 10777 10778 10777 10777 10776 10776 10776 10776 10776 10776 10777 10777 10777 10776 10776 10775 10774 10772 10770 10768 10766 10763 10761 10758 10755 10753 10753 10754 10754 10753 10753 10754 10754 10754
10496 10505 10513 10524 10533 10541 10550 10559 10571 10583 10590 10596 10603 10610 10618 10626 10636 10648 10658 10666 10675 10683 10689 10700 10708 10708 10711 10716 10720 10725 10730 10732 10734 10736 10739 10742 10746 10749 10752 10754 10756 10758 10761 10762 10764 10766 10766 10767 10768 10770 10772 10773 10774 10774 10774 10774 10774 10774 10775 10775 10775 10775 10776 10776 10775 10775 10774 10773 10771 10769 10767 10765 10762 10759 10756 10754 10752 10752 10752 10753 10752 10752 10753 10753 10753
10485 10495 10505 10515 10524 10534 10543 10553 10563 10573 10579 10586 10594 10604 10612 10619 10630 10642 10650 10657 10666 10676 10687 10700 10706 10705 10706 10711 10716 10720 10724 10726 10729 10733 10735 10739 10743 10746 10749 10751 10753 10756 10757 10759 10761 10763 10764 10764 10766 10767 10769 10770 10771 10771 10771 10771 10772 10772 10773 10773 10773 10774 10774 10774 10774 10773 10773 10772 10770 10768 10766 10764 10761 10758 10755 10753 10751 10751 10751 10751 10751 10751 10752 10752 10752
10475 10486 10497 10507 10517 10526 10536 10544 10552 10562 10571 10579 10588 10597 10605 10613 10624 10635 10644 10653 10662 10673 10685 10693 10699 10701 10702 10706 10712 10716 10719 10722 10727 10731 10734 10738 10741 10743 10746 10748 10750 10752 10754 10756 10758 10760 10761 10762 10763 10764 10766 10767 10767 10768 10768 10769 10769 10770 10771 10771 10772 10772 10772 10772 10772 10772 10771 10770 10769 10767 10765 10763 10760 10757 10754 10751 10750 10749 10749 10750 10750 10750 10750 10750 10750
10466 10477 10488 10500 10510 10518 10527 10535 10544 10555 10565 10573 10581 10589 10597 10607 10618 10629 10638 10648 10658 10670 10680 10686 10691 10694 10696 10700 10705 10710 10714 10719 10723 10727 10731 10736 10738 10741 10743 10745 10747 10749 10751 10753 10755 10756 10758 10759 10760 10761 10763 10764 10765 10765 10766 10766 10767 10768 10769 10769 10770 10770 10771 10771 10771 10770 10770 10769 10767 10765 10763 10761 10759 10757 10754 10751 10750 10748 10748 10748 10748 10748 10749 10749 10748
10459 10470 10481 10492 10502 10510 10519 10528 10537 10548 10557 10565 10573 10582 10593 10604 10614 10624 10633 10643 10654 10663 10672 10679 10683 10685 10688 10693 10700 10705 10710 10715 10719 10723 10728 10732 10734 10737 10740 10741 10743 10746 10748 10750 10752 10753 10755 10756 10757 10759 10761 10762 10763 10763 10763 10764 10764 10766 10767 10767 10768 10768 10769 10769 10769 10769 10768 10767 10766 10763 10762 10760 10758 10756 10753 10751 10749 10748 10747 10746 10746 10747 10747 10747 10747
10454 10465 10475 10485 10493 10501 10511 10522 10530 10539 10550 10559 10569 10578 10589 10601 10611 10620 10629 10639 10649 10658 10665 10671 10675 10679 10683 10690 10696 10701 10705 10710 10715 10719 10724 10727 10730 10733 10736 10738 10741 10743 10745 10747 10749 10750 10752 10754 10755 10757 10759 10759 10759 10759 10760 10761 10762 10764 10765 10765 10766 10766 10767 10767 10767 10767 10766 10765 10763 10761 10760 10758 10757 10755 10753 10750 10749 10747 10746 10745 10745 10745 10745 10745 10745
10446 10458 10470 10478 10485 10493 10504 10515 10522 10532 10545 10555 10564 10574 10584 10596 10606 10616 10626 10636 10644 10652 10659 10665 10671 10676 10681 10687 10694 10699 10702 10707 10711 10716 10720 10723 10726 10730 10732 10735 10738 10740 10742 10743 10745 10748 10750 10751 10753 10754 10755 10756 10756 10757 10758 10759 10760 10761 10762 10763 10764 10764 10765 10765 10764 10764 10764 10763 10761 10760 10758 10757 10755 10754 10752 10750 10748 10746 10745 10744 10744 10743 10743 10743 10743
10437 10449 10462 10471 10478 10487 10498 10508 10516 10526 10539 10549 10558 10568 10579 10590 10601 10610 10621 10631 10639 10646 10654 10662 10668 10673 10678 10684 10690 10695 10699 10704 10709 10713 10717 10720 10723 10726 10729 10732 10735 10737 10739 10741 10743 10745 10747 10748 10750 10751 10752 10752 10753 10754 10755 10756 10758 10759 10760 10761 10762 10762 10762 10762 10762 10762 10761 10760 10759 10758 10757 10755 10754 10752 10751 10749 10747 10746 10744 10743 10743 10742 10742 10741 10741
10433 10444 10456 10464 10471 10481 10492 10502 10510 10520 10532 10543 10553 10563 10574 10585 10596 10605 10615 10626 10634 10642 10651 10660 10667 10672 10677 10682 10688 10692 10696 10701 10707 10711 10714 10717 10720 10723 10726 10730 10732 10734 10736 10738 10741 10743 10744 10746 10747 10748 10749 10750 10751 10752 10753 10754 10756 10757 10758 10759 10760 10760 10760 10760 10760 10759 10759 10758 10757 10756 10755 10754 10752 10751 10750 10748 10747 10745 10743 10742 10741 10741 10740 10740 10739
10430 10441 10452 10460 10467 10476 10486 10495 10504 10513 10525 10538 10548 10559 10570 10581 10591 10600 10610 10621 10629 10638 10648 10658 10665 10669 10674 10680 10685 10689 10694 10700 10706 10710 10712 10715 10717 10720 10724 10727 10730 10732 10734 10736 10738 10740 10742 10743 10745 10746 10747 10748 10749 10750 10751 10752 10753 10754 10756 10757 10757 10758 10758 10758 10757 10757 10756 10756 10755 10754 10754 10753 10751 10750 10749 10748 10746 10744 10742 10741 10740 10739 10739 10739 10738
10424 10435 10446 10456 10464 10472 10481 10490 10499 10508 10521 10534 10545 10556 10567 10576 10586 10595 10605 10615 10624 10633 10643 10653 10659 10665 10671 10676 10682 10687 10693 10698 10703 10707 10710 10712 10714 10718 10721 10724 10727 10729 10731 10733 10735 10737 10739 10741 10743 10744 10745 10746 10747 10748 10749 10750 10751 10752 10753 10754 10755 10755 10756 10756 10755 10754 10754 10754 10753 10753 10753 10752 10751 10749 10748 10747 10746 10744 10742 10740 10738 10738 10738 10737 10737
10419 10429 10440 10450 10460 10469 10477 10486 10495 10504 10516 10529 10541 10551 10561 10569 10579 10590 10600 10611 10621 10629 10637 10645 10653 10662 10668 10674 10681 10686 10692 10697 10700 10704 10707 10708 10711 10715 10718 10721 10724 10726 10729 10731 10733 10735 10737 10739 10740 10742 10743 10744 10745 10746 10747 10748 10748 10749 10751 10752 10752 10753 10753 10753 10753 10752 10752 10752 10752 10752 10752 10751 10750 10749 10747 10746 10745 10743 10741 10739 10737 10737 10736 10736 10736
10416 10425 10436 10445 10455 10464 10473 10483 10492 10501 10511 10523 10535 10544 10553 10563 10574 10585 10595 10606 10615 10623 10631 10639 10648 10657 10664 10672 10678 10682 10687 10693 10696 10699 10703 10705 10708 10713 10715 10718 10721 10724 10726 10728 10730 10732 10734 10736 10737 10739 10740 10741 10742 10743 10744 10745 10745 10747 10748 10749 10750 10750 10751 10751 10750 10750 10749 10750 10750 10750 10750 10750 10749 10748 10747 10745 10744 10743 10741 10738 10736 10735 10735 10734 10733
10412 10422 10432 10441 10449 10459 10468 10477 10488 10498 10507 10518 10530 10539 10549 10559 10571 10582 10591 10600 10609 10616 10625 10634 10643 10652 10660 10668 10673 10676 10682 10689 10691 10694 10699 10702 10705 10710 10712 10715 10719 10721 10723 10725 10727 10729 10731 10733 10734 10736 10737 10738 10739 10740 10741 10742 10743 10744 10745 10746 10747 10747 10748 10748 10748 10747 10747 10747 10748 10748 10748 10748 10748 10747 10746 10744 10744 10742 10740 10738 10736 10734 10734 10733 10732
10408 10417 10427 10436 10445 10453 10461 10471 10481 10492 10502 10513 10525 10535 10545 10556 10568 10579 10588 10596 10605 10614 10624 10632 10639 10648 10657 10662 10665 10670 10678 10684 10686 10688 10694 10698 10702 10707 10710 10713 10716 10718 10720 10722 10725 10727 10728 10730 10732 10734 10735 10736 10736 10737 10738 10739 10740 10741 10742 10743 10744 10744 10745 10745 10745 10745 10745 10745 10745 10746 10746 10746 10746 10745 10744 10743 10742 10741 10739 10737 10736 10734 10733 10731 10730
10407 10413 10422 10432 10440 10448 10456 10465 10476 10487 10498 10509 10521 10530 10539 10550 10562 10573 10583 10593 10601 10610 10620 10628 10636 10645 10652 10654 10658 10668 10678 10680 10680 10684 10689 10695 10700 10704 10707 10710 10713 10715 10717 10719 10722 10724 10726 10728 10730 10732 10733 10734 10734 10734 10736 10737 10737 10738 10739 10739 10740 10741 10741 10742 10742 10742 10743 10743 10743 10744 10744 10744 10744 10743 10742 10741 10740 10739 10738 10736 10735 10733 10731 10730 10728
10407 10412 10418 10426 10435 10444 10452 10461 10471 10483 10494 10505 10516 10526 10535 10545 10555 10566 10578 10588 10596 10604 10612 10621 10630 10640 10648 10650 10655 10666 10673 10672 10674 10679 10685 10691 10697 10701 10704 10707 10710 10712 10715 10717 10719 10721 10723 10725 10727 10729 10730 10732 10732 10732 10733 10734 10735 10735 10735 10736 10736 10737 10738 10739 10739 10740 10740 10740 10740 10742 10742 10742 10742 10741 10740 10739 10738 10737 10736 10735 10733 10731 10730 10728 10726
10406 10411 10416 10422 10430 10439 10449 10459 10468 10479 10490 10501 10512 10521 10530 10539 10549 10560 10572 10581 10589 10598 10606 10614 10623 10634 10642 10648 10654 10660 10662 10663 10668 10674 10680 10687 10692 10697 10700 10703 10707 10710 10712 10714 10716 10718 10720 10722 10724 10726 10728 10729 10730 10730 10731 10732 10732 10732 10732 10732 10733 10734 10735 10736 10737 10737 10737 10737 10738 10739 10739 10739 10739 10739 10738 10737 10736 10735 10734 10733 10731 10730 10728 10727 10724
10403 10408 10414 10420 10426 10435 10444 10455 10465 10475 10486 10496 10507 10516 10525 10535 10545 10555 10566 10574 10582 10591 10601 10609 10620 10629 10634 10639 10646 10651 10652 10656 10663 10670 10676 10682 10688 10693 10696 10700 10704 10706 10709 10711 10713 10716 10718 10719 10721 10723 10725 10726 10727 10728 10728 10729 10730 10729 10729 10729 10730 10731 10732 10733 10734 10734 10734 10734 10735 10735 10736 10736 10736 10736 10735 10735 10734 10733 10732 10731 10729 10728 10726 10725 10722
10400 10405 10411 10417 10423 10430 10438 10448 10459 10470 10481 10492 10503 10512 10520 10530 10539 10549 10558 10566 10575 10585 10595 10604 10614 10622 10627 10631 10637 10642 10645 10651 10659 10665 10672 10678 10684 10689 10693 10697 10700 10703 10705 10708 10711 10714 10715 10717 10719 10721 10722 10723 10724 10725 10726 10726 10727 10727 10727 10727 10727 10728 10729 10730 10731 10731 10731 10732 10732 10733 10734 10734 10733 10732 10732 10732 10731 10730 10729 10728 10727 10725 10724 10722 10720
10398 10402 10407 10413 10419 10426 10433 10442 10451 10462 10474 10487 10498 10508 10516 10524 10533 10542 10551 10559 10569 10578 10588 10598 10606 10614 10622 10627 10631 10635 10641 10648 10655 10661 10668 10675 10680 10685 10689 10694 10697 10700 10702 10705 10709 10711 10713 10715 10717 10718 10719 10720 10721 10723 10723 10724 10724 10724 10725 10725 10725 10725 10726 10727 10728 10728 10729 10729 10730 10730 10731 10731 10730 10730 10729 10729 10728 10727 10726 10725 10724 10723 10721 10718 10716
10396 10400 10404 10409 10415 10422 10429 10437 10446 10455 10467 10480 10492 10502 10511 10519 10527 10536 10545 10555 10565 10574 10583 10591 10599 10609 10617 10620 10623 10629 10636 10644 10651 10657 10664 10671 10676 10681 10686 10691 10694 10696 10699 10703 10706 10708 10710 10711 10713 10714 10715 10717 10718 10720 10721 10721 10722 10722 10722 10722 10723 10723 10724 10725 10725 10726 10726 10726 10726 10727 10727 10727 10727 10726 10726 10726 10725 10724 10723 10722 10721 10720 10717 10715 10713
10393 10397 10402 10406 10411 10417 10425 10433 10442 10450 10460 10472 10485 10496 10505 10513 10521 10530 10540 10550 10560 10570 10578 10585 10594 10602 10607 10610 10616 10624 10632 10639 10647 10654 10661 10667 10672 10678 10684 10688 10690 10693 10696 10699 10702 10705 10706 10707 10708 10710 10712 10714 10716 10717 10718 10719 10719 10719 10720 10720 10720 10721 10722 10722 10722 10722 10722 10722 10723 10723 10724 10723 10723 10723 10723 10723 10722 10721 10720 10719 10718 10716 10714 10712 10710
10390 10395 10399 10403 10408 10414 10420 10428 10438 10447 10456 10467 10478 10490 10499 10508 10516 10526 10536 10546 10556 10566 10574 10581 10588 10594 10598 10603 10611 10619 10627 10636 10645 10652 10658 10663 10669 10675 10680 10683 10686 10689 10693 10696 10699 10701 10702 10703 10705 10707 10709 10712 10713 10715 10716 10717 10717 10717 10717 10718 10718 10718 10719 10719 10719 10719 10719 10720 10720 10720 10721 10720 10720 10720 10720 10719 10718 10717 10716 10715 10715 10713 10711 10709 10707
10387 10392 10397 10401 10406 10411 10417 10425 10434 10444 10453 10463 10474 10484 10493 10502 10511 10520 10531 10542 10552 10562 10570 10577 10583 10588 10593 10599 10608 10616 10625 10635 10643 10649 10655 10660 10666 10672 10676 10679 10682 10686 10689 10692 10695 10696 10697 10699 10701 10704 10707 10709 10711 10712 10713 10714 10714 10715 10715 10715 10715 10715 10715 10716 10716 10716 10717 10717 10718 10718 10718 10718 10718 10717 10717 10716 10715 10714 10713 10712 10711 10710 10708 10706 10704
10384 10389 10394 10399 10403 10409 10415 10422 10431 10441 10450 10460 10470 10480 10488 10496 10506 10515 10526 10537 10548 10557 10565 10572 10579 10583 10589 10596 10605 10614 10623 10632 10639 10645 10650 10656 10662 10667 10672 10676 10679 10682 10685 10688 10690 10692 10694 10696 10698 10701 10704 10707 10708 10709 10710 10711 10712 10712 10712 10712 10712 10713 10713 10714 10714 10715 10715 10715 10715 10715 10715 10715 10715 10714 10714 10713 10712 10710 10709 10708 10707 10706 10704 10702 10700
10383 10386 10391 10395 10400 10405 10412 10419 10428 10437 10447 10457 10466 10476 10485 10493 10501 10511 10521 10532 10542 10550 10558 10566 10573 10578 10585 10593 10601 10610 10620 10627 10633 10640 10645 10651 10658 10663 10668 10672 10675 10678 10681 10684 10687 10688 10690 10692 10695 10699 10702 10704 10705 10706 10707 10708 10708 10709 10709 10710 10710 10710 10711 10712 10712 10712 10712 10712 10712 10712 10712 10712 10712 10711 10710 10709 10708 10707 10706 10705 10703 10702 10700 10698 10696
10381 10384 10388 10392 10397 10401 10407 10415 10423 10432 10442 10452 10461 10471 10479 10487 10494 10504 10515 10525 10534 10542 10550 10559 10567 10573 10580 10588 10595 10605 10614 10621 10627 10634 10641 10647 10654 10659 10664 10668 10671 10675 10678 10681 10683 10684 10687 10690 10693 10697 10699 10701 10702 10703 10704 10704 10705 10706 10706 10707 10707 10708 10709 10709 10709 10709 10709 10709 10709 10709 10709 10709 10709 10708 10707 10705 10704 10703 10702 10701 10699 10698 10696 10694 10692
10380 10383 10387 10391 10395 10399 10404 10411 10419 10427 10436 10447 10457 10465 10474 10482 10490 10499 10508 10517 10525 10533 10542 10552 10559 10566 10575 10583 10590 10598 10608 10615 10622 10630 10637 10643 10650 10655 10660 10664 10669 10672 10675 10677 10679 10682 10684 10687 10691 10694 10696 10698 10699 10700 10701 10701 10702 10702 10703 10704 10705 10705 10706 10706 10706 10706 10706 10706 10706 10706 10706 10706 10705 10704 10703 10702 10700 10699 10698 10696 10695 10693 10691 10689 10687
10380 10383 10386 10390 10393 10397 10402 10408 10416 10424 10433 10442 10451 10460 10469 10477 10486 10494 10501 10509 10517 10525 10534 10544 10552 10560 10570 10577 10584 10593 10602 10610 10618 10626 10632 10639 10646 10651 10656 10662 10666 10669 10672 10674 10677 10679 10682 10685 10688 10691 10693 10694 10696 10697 10698 10698 10699 10699 10700 10701 10702 10702 10702 10703 10703 10703 10703 10703 10703 10702 10702 10702 10701 10701 10700 10698 10697 10696 10694 10692 10690 10689 10687 10684 10682
10380 10382 10386 10389 10392 10395 10399 10405 10412 10421 10430 10438 10446 10455 10464 10472 10481 10489 10498 10506 10514 10521 10530 10539 10547 10554 10562 10570 10577 10587 10597 10606 10614 10622 10628 10635 10642 10647 10653 10659 10663 10666 10669 10671 10674 10676 10679 10682 10685 10688 10689 10691 10693 10694 10695 10695 10695 10696 10697 10698 10698 10698 10699 10699 10700 10700 10700 10700 10700 10699 10699 10698 10697 10696 10695 10694 10693 10691 10690 10688 10686 10684 10682 10679 10677
10380 10382 10385 10388 10392 10396 10399 10404 10410 10418 10426 10434 10442 10451 10460 10469 10477 10486 10496 10506 10514 10521 10528 10536 10542 10548 10556 10563 10571 10582 10592 10602 10611 10618 10625 10632 10638 10644 10650 10655 10659 10663 10666 10668 10671 10674 10677 10679 10682 10684 10686 10688 10689 10690 10691 10691 10691 10692 10693 10694 10694 10695 10695 10695 10696 10697 10696 10696 10696 10695 10695 10694 10693 10692 10691 10690 10689 10687 10685 10684 10681 10679 10677 10675 10672
10380 10382 10385 10387 10392 10396 10400 10405 10410 10416 10424 10432 10440 10448 10457 10466 10475 10483 10494 10504 10512 10519 10526 10532 10537 10543 10550 10558 10567 10577 10588 10598 10607 10614 10622 10629 10634 10640 10647 10652 10656 10659 10662 10665 10668 10671 10673 10676 10679 10681 10682 10684 10685 10686 10687 10687 10687 10688 10688 10689 10690 10691 10691 10691 10692 10693 10693 10692 10691 10691 10690 10690 10689 10688 10686 10685 10684 10682 10680 10679 10677 10675 10672 10670 10667
10380 10382 10385 10387 10391 10395 10399 10405 10410 10416 10424 10432 10439 10446 10455 10464 10471 10479 10488 10498 10507 10515 10521 10527 10533 10539 10546 10554 10565 10576 10585 10595 10604 10611 10618 10624 10630 10637 10644 10648 10652 10656 10659 10662 10664 10667 10670 10673 10675 10677 10679 10680 10681 10682 10683 10683 10683 10683 10684 10685 10686 10686 10686 10686 10687 10688 10688 10688 10687 10686 10686 10686 10685 10683 10682 10681 10679 10677 10676 10674 10672 10670 10667 10665 10662
10381 10383 10385 10388 10391 10395 10400 10405 10411 10418 10425 10432 10439 10446 10453 10460 10467 10474 10483 10491 10500 10508 10515 10522 10529 10536 10543 10552 10563 10574 10583 10592 10601 10609 10615 10621 10627 10634 10640 10644 10648 10652 10655 10657 10660 10663 10667 10670 10672 10674 10675 10676 10677 10678 10679 10679 10679 10679 10680 10681 10681 10682 10682 10683 10683 10684 10684 10683 10683 10682 10682 10681 10680 10679 10678 10676 10675 10673 10671 10669 10667 10665 10662 10660 10658
10383 10385 10387 10389 10393 10397 10402 10407 10413 10419 10426 10432 10439 10445 10451 10457 10463 10470 10478 10487 10495 10503 10510 10518 10527 10535 10543 10551 10562 10573 10581 10590 10599 10608 10613 10619 10625 10631 10636 10641 10645 10647 10650 10654 10656 10660 10663 10666 10668 10670 10671 10671 10672 10674 10674 10675 10675 10675 10676 10676 10677 10677 10678 10679 10679 10680 10679 10679 10678 10678 10677 10676 10675 10674 10673 10672 10670 10668 10666 10665 10663 10660 10657 10655 10652
10383 10386 10388 10391 10395 10399 10404 10409 10415 10420 10425 10431 10438 10444 10449 10454 10460 10467 10475 10484 10492 10500 10508 10516 10525 10534 10542 10551 10561 10570 10578 10587 10597 10606 10611 10617 10623 10627 10632 10637 10640 10643 10646 10650 10653 10657 10660 10662 10664 10666 10667 10668 10668 10669 10670 10670 10670 10671 10671 10672 10673 10673 10674 10675 10675 10675 10675 10674 10674 10673 10672 10672 10671 10670 10668 10667 10665 10663 10662 10660 10658 10655 10652 10650 10647
10383 10385 10388 10392 10397 10402 10407 10411 10416 10421 10425 10431 10437 10443 10449 10453 10458 10465 10474 10483 10491 10499 10507 10515 10523 10532 10541 10549 10558 10567 10575 10584 10594 10603 10610 10615 10620 10624 10629 10634 10636 10638 10643 10647 10650 10653 10656 10658 10661 10662 10663 10664 10665 10665 10665 10665 10666 10667 10668 10669 10669 10670 10671 10671 10671 10671 10670 10670 10669 10668 10668 10667 10666 10665 10663 10662 10660 10659 10657 10655 10653 10650 10647 10644 10642
10384 10386 10389 10393 10398 10404 10409 10414 10418 10423 10427 10432 10438 10444 10449 10453 10458 10464 10473 10482 10490 10498 10507 10515 10522 10531 10539 10547 10555 10565 10573 10581 10592 10601 10607 10612 10617 10621 10626 10629 10631 10634 10639 10643 10646 10649 10651 10654 10657 10658 10659 10660 10660 10661 10661 10661 10662 10663 10664 10665 10666 10667 10667 10667 10667 10666 10665 10664 10664 10664 10663 10662 10661 10660 10658 10657 10656 10654 10652 10650 10647 10644 10642 10639 10637
10387 10388 10391 10395 10400 10405 10411 10416 10421 10425 10429 10434 10439 10444 10449 10454 10458 10464 10471 10480 10490 10499 10507 10514 10521 10529 10538 10545 10553 10562 10571 10580 10590 10599 10604 10609 10614 10618 10622 10626 10628 10631 10636 10639 10642 10644 10647 10649 10652 10654 10655 10655 10655 10656 10656 10657 10658 10659 10660 10661 10662 10663 10663 10662 10662 10661 10660 10660 10659 10659 10658 10657 10656 10655 10654 10652 10651 10649 10647 10645 10642 10639 10636 10634 10631
10393 10394 10395 10398 10402 10407 10411 10416 10422 10426 10431 10435 10440 10445 10450 10455 10460 10465 10471 10480 10490 10498 10506 10513 10520 10528 10536 10543 10552 10562 10571 10578 10588 10596 10601 10606 10611 10615 10619 10622 10625 10627 10631 10635 10638 10640 10643 10645 10647 10649 10650 10651 10651 10652 10652 10653 10655 10656 10656 10657 10657 10658 10658 10657 10657 10656 10656 10655 10655 10654 10654 10652 10651 10650 10649 10647 10646 10644 10642 10639 10636 10633 10631 10628 10625
10400 10402 10402 10403 10405 10408 10412 10417 10421 10426 10431 10436 10441 10446 10451 10457 10463 10468 10474 10481 10490 10498 10505 10513 10520 10528 10535 10543 10552 10562 10569 10576 10585 10593 10598 10602 10606 10610 10614 10618 10620 10623 10627 10630 10634 10637 10639 10641 10643 10645 10646 10647 10647 10648 10648 10649 10651 10652 10652 10652 10652 10652 10652 10652 10652 10652 10651 10651 10650 10649 10648 10647 10645 10644 10643 10642 10640 10638 10636 10634 10631 10628 10625 10622 10619
10407 10408 10409 10409 10410 10411 10413 10417 10420 10425 10430 10435 10441 10446 10452 10458 10464 10470 10476 10482 10490 10498 10506 10513 10521 10529 10536 10544 10552 10560 10567 10574 10583 10590 10594 10598 10602 10606 10609 10613 10616 10620 10624 10627 10630 10633 10636 10637 10639 10640 10641 10642 10643 10644 10644 10645 10646 10647 10647 10647 10647 10647 10647 10647 10647 10647 10646 10646 10645 10644 10642 10641 10639 10638 10637 10636 10635 10633 10630 10628 10624 10621 10618 10615 10613
10413 10414 10415 10415 10415 10415 10416 10417 10420 10423 10427 10432 10438 10445 10451 10457 10463 10470 10476 10483 10491 10499 10508 10515 10523 10531 10538 10545 10551 10558 10565 10572 10579 10586 10590 10594 10598 10601 10604 10608 10613 10618 10621 10624 10626 10629 10631 10632 10634 10635 10637 10638 10639 10639 10640 10641 10642 10642 10643 10643 10643 10643 10642 10642 10642 10641 10641 10640 10639 10638 10637 10635 10634 10633 10632 10631 10629 10626 10624 10621 10618 10615 10612 10609 10607
10421 10420 10420 10421 10421 10421 10421 10421 10422 10423 10426 10430 10435 10441 10448 10454 10461 10468 10475 10484 10492 10500 10508 10516 10524 10532 10538 10544 10550 10556 10563 10569 10576 10582 10586 10589 10593 10596 10601 10606 10612 10616 10619 10621 10622 10624 10626 10628 10629 10631 10632 10633 10634 10635 10636 10636 10637 10638 10638 10638 10638 10637 10637 10637 10636 10636 10635 10635 10634 10633 10631 10630 10629 10628 10626 10625 10623 10620 10618 10615 10612 10609 10606 10603 10600